User: anonymous   Login
Location: Curupao
(10.4996°N, 66.6442°W)
Time: 12:51:25
(UTC+00:00)
Language:

CZ-4B R/B - Orbit

View from above orbital plane
View from above orbital plane
View from above satellite
View from above satellite

Ground track
Ground track

The orbit data is extracted from the following two-line orbital elements,

1 27432U 02024C   24200.72279141  .00000176  00000-0  11489-3 0  9997
2 27432  98.9732 243.1933 0049268 281.9532 187.7526 14.14337007144568
Epoch (UTC): 18 July 2024 17:20:49
Eccentricity: 0.0049268
inclination: 98.9732°
perigee height: 809 km
apogee height: 880 km
right ascension of ascending node: 243.1933°
argument of perigee: 281.9532°
revolutions per day: 14.14337007
mean anomaly at epoch: 187.7526°
orbit number at epoch: 14456

The dashed part of the orbit path shows where the satellite is in the earth's shadow,  

DLR